Terminal Aerodrome Forecast
Issued by NWS

Home | Current Version | Previous Version | Text Only | Print | Product List | Glossary On
Versions: 1 2 3 4 5 6 7 8 9 10 11 12 13 14 15 16 17 18 19 20 21 22 23 24 25 26 27 28 29 30 31 32 33 34 35 36 37 38 39
000
FTUS41 KPBZ 171503 AAA
TAFDUJ
TAF AMD
KDUJ 171503Z 1715/1812 24006KT P6SM VCSH OVC005
     FM172000 23004KT 6SM -SHRA VCTS OVC010CB
     FM180000 VRB03KT P6SM VCTS OVC015CB=

USA.gov is the U.S. government's official web portal to all federal, state and local government web resources and services.